Patuxent River, MD

12:13 PM EDT on May 24, 2017 (GMT -0400)
Patuxent River Naval Air Station

Weather History for KNHK - October, 2012

Change the Weather History Date:

Wednesday, October 17, 2012

  Actual Average Record
Temperature  
Mean Temperature 55 °F -  
Max Temperature 68 °F 65 °F 79 °F (2007)
Min Temperature 44 °F 48 °F 38 °F (1977)
Degree Days  
Heating Degree Days 10    
Growing Degree Days 5 (Base 50)    
Moisture  
Dew Point 48 °F    
Average Humidity 75    
Maximum Humidity 93    
Minimum Humidity 43    
Precipitation  
Precipitation 0.00 in - - ()
Sea Level Pressure  
Sea Level Pressure 29.97 in    
Wind  
Wind Speed 5 mph (SSE)    
Max Wind Speed 10 mph    
Max Gust Speed 16 mph    
Visibility 10 miles    
Events      
Averages and records for this station are not official NWS values.
T = Trace of Precipitation, MM = Missing Value Source: NWS Daily Summary

Daily Weather History Graph

Daily Weather History Graph

Search for Another Location

Airport or City:

Trip Planner

Search our weather history database for the weather conditions in past years. The results will help you decide how hot, cold, wet, or windy it might be!

Date:

Astronomy

Oct. 17, 2012 Rise Set
Actual Time 7:16 AM EDT 6:24 PM EDT
Civil Twilight 6:50 AM EDT 6:50 PM EDT
Nautical Twilight 6:19 AM EDT 7:21 PM EDT
Astronomical Twilight 5:48 AM EDT 7:52 PM EDT
Moon 9:46 AM EDT (10/17) 8:00 PM EDT (10/17)
Length of Visible Light 12h 00m
Length of Day
11h 07m
Waxing Crescent, 7% of the Moon is Illuminated
Oct 17
Waxing Crescent
Oct 21
First Quarter
Oct 29
Full
Nov 6
Last Quarter
Nov 13
New

Hourly Weather History & Observations

Time (EDT) Temp. Windchill Dew Point Humidity Pressure Visibility Wind Dir Wind Speed Gust Speed Precip Events Conditions
12:52 AM 46.0 °F 43.9 °F 43.0 °F 89% 29.94 in 10.0 mi WSW 4.6 mph - N/A   Clear
1:52 AM 45.0 °F 42.6 °F 42.1 °F 90% 29.94 in 10.0 mi WSW 4.6 mph - N/A   Clear
2:52 AM 44.1 °F - 41.0 °F 89% 29.94 in 10.0 mi Calm Calm - N/A   Clear
3:52 AM 46.0 °F 43.9 °F 44.1 °F 93% 29.95 in 10.0 mi WSW 4.6 mph - N/A   Clear
4:52 AM 46.0 °F 43.9 °F 44.1 °F 93% 29.96 in 10.0 mi SW 4.6 mph - N/A   Clear
5:01 AM 46.4 °F - 42.8 °F 87% 29.96 in 10.0 mi Calm Calm - N/A   Partly Cloudy
5:52 AM 46.0 °F 44.8 °F 44.1 °F 93% 29.97 in 10.0 mi SW 3.5 mph - N/A   Partly Cloudy
6:52 AM 45.0 °F - 43.0 °F 93% 29.97 in 10.0 mi Calm Calm - N/A   Scattered Clouds
7:52 AM 46.9 °F - 44.1 °F 90% 29.99 in 9.0 mi SW 4.6 mph - N/A   Mostly Cloudy
8:52 AM 53.1 °F - 51.1 °F 93% 30.01 in 10.0 mi Calm Calm - N/A   Mostly Cloudy
9:52 AM 61.0 °F - 51.1 °F 70% 30.02 in 10.0 mi SSE 3.5 mph - N/A   Mostly Cloudy
10:52 AM 63.0 °F - 48.0 °F 58% 30.03 in 10.0 mi SE 4.6 mph - N/A   Mostly Cloudy
11:52 AM 64.0 °F - 46.0 °F 52% 30.01 in 10.0 mi SE 8.1 mph - N/A   Mostly Cloudy
12:52 PM 66.0 °F - 43.0 °F 43% 29.99 in 10.0 mi Variable 3.5 mph - N/A   Mostly Cloudy
1:52 PM 66.9 °F - 46.0 °F 47% 29.97 in 10.0 mi SE 5.8 mph - N/A   Mostly Cloudy
2:52 PM 66.9 °F - 48.9 °F 52% 29.95 in 10.0 mi ESE 10.4 mph 16.1 mph N/A   Mostly Cloudy
3:52 PM 64.9 °F - 51.1 °F 61% 29.95 in 10.0 mi ESE 10.4 mph - N/A   Scattered Clouds
4:52 PM 64.0 °F - 52.0 °F 65% 29.95 in 10.0 mi SE 8.1 mph - N/A   Scattered Clouds
5:52 PM 63.0 °F - 52.0 °F 67% 29.95 in 10.0 mi ESE 10.4 mph - N/A   Scattered Clouds
6:52 PM 62.1 °F - 52.0 °F 70% 29.95 in 10.0 mi SE 6.9 mph - N/A   Partly Cloudy
7:52 PM 60.1 °F - 52.0 °F 75% 29.96 in 10.0 mi SSE 5.8 mph - N/A   Clear
8:52 PM 59.0 °F - 51.1 °F 75% 29.97 in 10.0 mi SSE 5.8 mph - N/A   Clear
9:52 PM 59.0 °F - 52.0 °F 78% 29.97 in 10.0 mi SSE 6.9 mph - N/A   Clear
10:52 PM 57.9 °F - 52.0 °F 81% 29.97 in 10.0 mi SSE 5.8 mph - N/A   Clear
11:52 PM 57.9 °F - 52.0 °F 81% 29.96 in 10.0 mi SSE 5.8 mph - N/A   Clear